Weather History for Mason City, IA

Change the Weather History Date:

Thursday, July 10, 2014

  Actual Average Record
Temperature  
Mean Temperature 70 °F 72 °F  
Max Temperature 82 °F 84 °F 104 °F (1936)
Min Temperature 57 °F 61 °F 45 °F (1945)
Degree Days  
Heating Degree Days 0 0  
Month to date heating degree days 0  
Since 1 June heating degree days 44  
Since 1 July heating degree days 0  
Cooling Degree Days 4 7  
Month to date cooling degree days 70  
Year to date cooling degree days 243  
Since 1 June cooling degree days 208  
Growing Degree Days 20 (Base 50)    
Moisture  
Dew Point 59 °F    
Average Humidity 69    
Maximum Humidity 100    
Minimum Humidity 41    
Precipitation  
Precipitation 0.00 in 0.15 in 2.24 in (1971)
Month to date precipitation 1.54  
Year to date precipitation 19.16  
Snow  
Snow 0.00 in 0.00 in - ()
Month to date snowfall 0.0  
Since 1 June snowfall 0.0  
Since 1 July snowfall 0.0  
Snow Depth -    
Sea Level Pressure  
Sea Level Pressure 30.05 in    
Wind  
Wind Speed 8 mph (South)    
Max Wind Speed 17 mph    
Max Gust Speed 25 mph    
Visibility 8 miles    
Events      
T = Trace of Precipitation, MM = Missing Value Source: NWS Daily Summary

Daily Weather History Graph

Daily Weather History Graph

Search for Another Location

Airport:

Trip Planner

Search our weather history database for the weather conditions in past years. The results will help you decide how hot, cold, wet, or windy it might be!

Date:

Astronomy

Jul. 10, 2014 Rise Set
Actual Time 5:43 AM CDT 8:53 PM CDT
Civil Twilight 5:08 AM CDT 9:28 PM CDT
Nautical Twilight 4:23 AM CDT 10:12 PM CDT
Astronomical Twilight 3:29 AM CDT 11:06 PM CDT
Moon 7:05 PM CDT (7/10) 3:57 AM CDT (7/10)
Length of Visible Light 16h 19m
Length of Day
15h 10m
Waxing Gibbous, 95% of the Moon is Illuminated
Jul 10
Waxing Gibbous
Jul 12
Full
Jul 18
Last Quarter
Jul 26
New
Aug 3
First Quarter

Hourly Weather History & Observations

Time (CDT) Temp. Heat Index Dew Point Humidity Pressure Visibility Wind Dir Wind Speed Gust Speed Precip Events Conditions
12:53 AM 60.1 °F - 59.0 °F 96% 30.03 in 7.0 mi South 5.8 mph - N/A   Clear
1:53 AM 59.0 °F - 57.9 °F 96% 30.03 in 6.0 mi South 3.5 mph - N/A   Partly Cloudy
2:53 AM 57.2 °F - 57.2 °F 100% 30.05 in 6.0 mi South 5.8 mph - N/A   Clear
3:53 AM 57.9 °F - 57.0 °F 97% 30.02 in 5.0 mi South 4.6 mph - N/A   Clear
4:53 AM 59.0 °F - 57.2 °F 94% 30.05 in 5.0 mi SSE 3.5 mph - N/A   Scattered Clouds
5:53 AM 57.9 °F - 57.0 °F 97% 30.04 in 3.0 mi South 5.8 mph - N/A   Clear
6:53 AM 64.0 °F - 60.1 °F 87% 30.06 in 7.0 mi South 6.9 mph - N/A   Partly Cloudy
7:53 AM 66.2 °F - 62.6 °F 88% 30.10 in 6.0 mi South 8.1 mph - N/A   Partly Cloudy
8:53 AM 71.1 °F - 62.1 °F 73% 30.08 in 8.0 mi SSW 6.9 mph - N/A   Clear
9:53 AM 75.0 °F - 61.0 °F 62% 30.08 in 9.0 mi SSW 11.5 mph - N/A   Clear
10:53 AM 77.0 °F - 61.0 °F 58% 30.09 in 9.0 mi South 11.5 mph - N/A   Scattered Clouds
11:53 AM 80.1 °F 80.9 °F 60.1 °F 50% 30.08 in 9.0 mi SW 15.0 mph - N/A   Clear
12:53 PM 81.0 °F 81.6 °F 60.1 °F 49% 30.06 in 9.0 mi South 13.8 mph 23.0 mph N/A   Clear
1:53 PM 82.0 °F 82.4 °F 60.1 °F 47% 30.05 in 10.0 mi South 17.3 mph 25.3 mph N/A   Clear
2:53 PM 82.9 °F 82.6 °F 57.9 °F 42% 30.04 in 10.0 mi South 13.8 mph - N/A   Clear
3:53 PM 82.9 °F 82.4 °F 57.0 °F 41% 30.03 in 10.0 mi South 16.1 mph 24.2 mph N/A   Clear
4:53 PM 82.9 °F 82.6 °F 57.9 °F 42% 30.03 in 10.0 mi South 12.7 mph - N/A   Clear
5:53 PM 79.0 °F - 57.0 °F 47% 30.02 in 10.0 mi South 13.8 mph - N/A   Clear
6:53 PM 77.0 °F - 61.0 °F 58% 30.02 in 10.0 mi South 10.4 mph - N/A   Clear
7:53 PM 73.9 °F - 61.0 °F 64% 30.04 in 10.0 mi South 8.1 mph - N/A   Clear
8:53 PM 73.9 °F - 60.1 °F 62% 30.02 in 10.0 mi South 13.8 mph - N/A   Clear
9:53 PM 71.1 °F - 60.1 °F 68% 30.03 in 10.0 mi South 10.4 mph - N/A   Clear
10:53 PM 70.0 °F - 60.1 °F 71% 30.05 in 10.0 mi South 10.4 mph - N/A   Clear
11:53 PM 69.1 °F - 60.1 °F 73% 30.04 in 10.0 mi South 10.4 mph - N/A   Clear